Lexington Weather

Lexington, Massachusetts, USA

68°F
9/23/2021 5:29am 
  • Lexington Conditions: Mostly cloudy
  • Temperature: 67.6°F / 19.8°CWarmer 0.7°F than last hour.
  • Dew Point: 66.4°FIncreased 0.7°Fsince last hour.
  • Relative Humidity: 96
  • Wind: Calm, 10-min avg: Calm, gust: 2 mph
  • Barometer: 30.03 in Steady
  • Visibility: 10 miles
  • Rain Today: 0.00 in
  •   

Regional Weather Roundup
for Boston / Norton, MA

        
000
ASUS41 KBOX 230004
RWRBOX

REGIONAL WEATHER ROUNDUP
NATIONAL WEATHER SERVICE BOSTON/NORTON MA
800 PM EDT WED SEP 22 2021

NOTE:  "FAIR" INDICATES FEW OR NO CLOUDS BELOW 12,000 FEET WITH NO 
SIGNIFICANT WEATHER AND/OR OBSTRUCTIONS TO VISIBILITY.

MAZALL-230100-
EASTERN MASSACHUSETTS
  
CITY           SKY/WX    TMP DP  RH WIND       PRES   REMARKS
BOSTON         MOCLDY    73  66  78 S9        30.11R                  
6HR MIN TEMP:  73; 6HR MAX TEMP:  78; 6HR PCP: TRACE;                

BEVERLY        MOCLDY    71  67  87 SE8       30.10R                  
LAWRENCE       MOCLDY    72  68  87 SE5       30.12R                  
BEDFORD        MOCLDY    72  68  87 S8        30.09R                  
BLUE HILL      NOT AVBL                                               
NORWOOD        CLEAR     72  67  84 S6        30.10R                  
MARSHFIELD     PTCLDY    72  68  88 S8        30.11S                  
PLYMOUTH       CLEAR     71  67  87 S7        30.12S                  
TAUNTON        CLEAR     72  67  84 SE5       30.11R                  
NEW BEDFORD    PTCLDY    73  68  84 S9        30.11R                  
$$

MAZALL-230100-
CAPE COD AND THE ISLANDS
  
CITY           SKY/WX    TMP DP  RH WIND       PRES   REMARKS
FALMOUTH       PTCLDY    70  68  94 S10       30.13R                  
HYANNIS        CLEAR     71  68  90 VRB3      30.12R                  
CHATHAM        CLEAR     67  64  90 S6        30.15R                  
PROVINCETOWN   CLEAR     69  67  93 S8        30.14R                  
NANTUCKET        N/A    N/A N/A N/A MISG      30.14R                  
MARTHAS VNYRD  PTCLDY    70  68  93 SE9       30.12S                  
$$
 
MAZALL-230100-
CENTRAL AND WESTERN MASSACHUSETTS
  
CITY           SKY/WX    TMP DP  RH WIND       PRES   REMARKS
WORCESTER      CLOUDY    68  67  96 S12       30.12R                  
6HR MIN TEMP:  68; 6HR MAX TEMP:  71; 6HR PCP:  0.17;                

FITCHBURG      CLOUDY    71  68  90 SE7       30.10R                  
ORANGE         MOCLDY    71  68  90 S8        30.08R                  
SPRINGFIELD    LGT RAIN  73  68  83 S7        30.04S                  
WESTFIELD      CLOUDY    72  72 100 SE6       30.05S                  
NORTH ADAMS    NOT AVBL                                               
PITTSFIELD     PTCLDY    69  64  84 SE9G18    30.04S                  
$$
 
RIZALL-230100-
RHODE ISLAND
  
CITY           SKY/WX    TMP DP  RH WIND       PRES   REMARKS
PROVIDENCE     MOCLDY    72  69  90 S8        30.11R                  
6HR MIN TEMP:  72; 6HR MAX TEMP:  74; 6HR PCP: TRACE;                

NEWPORT        CLEAR     70  69  97 S12       30.11R                  
BLOCK ISLAND   CLEAR     70  68  93 S9        30.11R                  
SMITHFIELD     CLOUDY    70  68  93 VRB5      30.12R                  
WESTERLY       CLOUDY    69  69 100 SE9       30.09S                  
$$
 
CTZALL-230100-
CONNECTICUT
  
CITY           SKY/WX    TMP DP  RH WIND       PRES   REMARKS
BRADLEY INTL   CLOUDY    71  70  96 S9        30.05S                  
6HR MIN TEMP:  71; 6HR MAX TEMP:  78; 6HR PCP:  0.06;                

HARTFORD       RAIN      72  69  90 SE8       30.04F FOG              
BRIDGEPORT     MOCLDY    75  70  84 SE8       30.03F                  
DANBURY        CLOUDY    75  70  84 SE6       30.04S                  
GROTON         CLOUDY    71  70  96 SE14      30.07S                  
NEW HAVEN      CLOUDY    76  73  91 SE12      30.04F                  
CHESTER        CLOUDY    72  72 100 NE9G15    30.07F                  
MERIDEN        CLOUDY    73  68  84 S5        30.04F                  
WILLIMANTIC    LGT RAIN  71  69  93 S8        30.08S                  
OXFORD         CLOUDY    72  70  94 SE9       30.06F                  
$$

MEZ002-015-021-024-NHZ003-005-008-011-012-014-VTZ005-008-230100-
NORTHERN NEW ENGLAND
  
CITY           SKY/WX    TMP DP  RH WIND       PRES   REMARKS
PORTLAND ME    CLOUDY    66  64  93 S7        30.13S                  
6HR MIN TEMP:  66; 6HR MAX TEMP:  71; 6HR PCP: TRACE;                

BANGOR ME      CLOUDY    66  62  87 S9        30.17R                  
CONCORD NH     LGT RAIN  69  68  96 SE6       30.09R                  
MANCHESTER NH  CLOUDY    73  67  81 S7        30.08R                  
NASHUA NH      CLOUDY    71  71 100 SE8       30.09S                  
PORTSMOUTH NH  CLOUDY    68  65  88 SE10      30.12R                  
JAFFREY NH     CLOUDY    71  69  93 S7        30.10S                  
KEENE NH       CLOUDY    72  68  87 SE8       30.06S                  
BURLINGTON VT  CLOUDY    74  66  76 S3        29.96S                  
MT. WASHINGTON NOT AVBL                                               
$$

NYZ052-076-230100-
EASTERN NEW YORK
  
CITY           SKY/WX    TMP DP  RH WIND       PRES   REMARKS
ALBANY         MOCLDY    71  63  75 SE9       29.98S                  
6HR MIN TEMP:  70; 6HR MAX TEMP:  79;                                

NEW YORK CITY  MOCLDY    77  69  76 S18G25    29.99F                  
6HR MIN TEMP:  72; 6HR MAX TEMP:  83;                                

$$
 
ANZALL-230100-
MARINE OBSERVATIONS
  
STATION/POSITION TIME  TEMP    WIND        PRES    VSBY  WAVE
                       AIR SEA DIR/SP/G                  HT/PER
                 (UTC) (F)     (DEG/KT/KT) (MB)    (MI)  (FT/S)
BOSTON BUOY      2340      66  150/ 10/ 12 1020.1R
BUZZARDS BAY     2300          140/ 16/ 17 1020.2S
NANTUCKET SOUND  2340   73 72  160/ 14/ 16 1020.1R
MASS BAY-STELLWA 2304   68     160/ 12/ 16 1019.2R  1 7/8  3/ 4
ISLE OF SHOALS   2300   68     140/ 22/ 24 1018.4F
S OF BLOCK IS    2326      70                N/A           4/ 7
$$

......................KEY.........................
  SKY/WX - SKY CONDITION/PRESENT WEATHER
  TMP    - TEMPERATURE IN FAHRENHEIT
  DWPT   - DEWPOINT IN FAHRENHEIT
  RH     - RELATIVE HUMIDITY IN PERCENT
  WIND   - DIRECTION AND SPEED IN MPH
  PRES   - MEAN SEA LEVEL PRESSURE IN INCHES OF HG
  WCI    - WIND CHILL INDEX
  VSB    - VISIBILITY IN MILES
  HX     - HEAT INDEX
  TC     - TEMPERATURE IN CELSIUS
  VRB    - VARIABLE WIND DIRECTION
  N/A    - NOT AVAILABLE
  
      

Other recent Regional Weather Roundups

Thu Sep 23, 5:04am

Thu Sep 23, 4:04am

Thu Sep 23, 3:04am

Thu Sep 23, 2:04am

Thu Sep 23, 1:04am

Thu Sep 23, 12:04am

Wed Sep 22, 11:04pm

Wed Sep 22, 10:04pm

Wed Sep 22, 9:04pm

Wed Sep 22, 7:04pm

Wed Sep 22, 6:04pm

Wed Sep 22, 5:04pm

Wed Sep 22, 4:04pm

Wed Sep 22, 3:04pm

Wed Sep 22, 2:04pm

Wed Sep 22, 1:04pm

Wed Sep 22, 12:05pm

Wed Sep 22, 11:04am

Wed Sep 22, 10:04am

Wed Sep 22, 9:04am

Wed Sep 22, 8:04am

Wed Sep 22, 7:04am

Wed Sep 22, 6:04am

Wed Sep 22, 5:04am

Wed Sep 22, 4:04am

Wed Sep 22, 3:04am

Wed Sep 22, 2:04am

Wed Sep 22, 1:04am

Wed Sep 22, 12:04am

Tue Sep 21, 11:04pm

Tue Sep 21, 10:04pm

Tue Sep 21, 9:04pm

Tue Sep 21, 8:04pm

Tue Sep 21, 7:04pm

Tue Sep 21, 6:04pm

Tue Sep 21, 5:04pm

Tue Sep 21, 4:04pm

Tue Sep 21, 3:04pm

Tue Sep 21, 2:04pm

Tue Sep 21, 1:04pm

Tue Sep 21, 12:04pm

Tue Sep 21, 11:04am

Tue Sep 21, 10:04am

Tue Sep 21, 9:04am

Tue Sep 21, 8:04am

Tue Sep 21, 7:04am

Tue Sep 21, 6:04am

Tue Sep 21, 5:04am

Tue Sep 21, 4:04am

Tue Sep 21, 3:04am

Tue Sep 21, 2:04am

Tue Sep 21, 1:04am

Tue Sep 21, 12:04am

Mon Sep 20, 11:04pm

Mon Sep 20, 10:04pm

Mon Sep 20, 9:04pm

Mon Sep 20, 8:04pm

Mon Sep 20, 7:04pm

Mon Sep 20, 6:04pm

Mon Sep 20, 5:04pm

Mon Sep 20, 4:04pm

Mon Sep 20, 3:04pm

Mon Sep 20, 2:04pm

Mon Sep 20, 1:04pm

Mon Sep 20, 12:04pm

Mon Sep 20, 11:04am

Mon Sep 20, 10:04am

Mon Sep 20, 9:04am

Mon Sep 20, 7:04am

Mon Sep 20, 6:04am

Mon Sep 20, 5:04am

Mon Sep 20, 4:04am

Mon Sep 20, 3:04am

Mon Sep 20, 2:04am

Mon Sep 20, 1:04am

Mon Sep 20, 12:04am

Sun Sep 19, 11:04pm

Sun Sep 19, 10:04pm

Sun Sep 19, 9:04pm

Sun Sep 19, 8:04pm

Sun Sep 19, 7:04pm

Sun Sep 19, 6:04pm

Sun Sep 19, 5:04pm

Sun Sep 19, 4:04pm

Sun Sep 19, 3:04pm

Sun Sep 19, 2:05pm

Sun Sep 19, 1:04pm

Sun Sep 19, 12:04pm

Sun Sep 19, 11:04am

Sun Sep 19, 10:05am

Sun Sep 19, 9:04am

Sun Sep 19, 8:04am

Sun Sep 19, 7:04am

Sun Sep 19, 6:04am

Sun Sep 19, 5:04am

Sun Sep 19, 4:04am

Sun Sep 19, 3:04am

Sun Sep 19, 2:04am

Sun Sep 19, 1:04am

Sun Sep 19, 12:04am

Sat Sep 18, 11:05pm

Sat Sep 18, 10:04pm

Sat Sep 18, 9:04pm

Sat Sep 18, 8:04pm

Sat Sep 18, 7:04pm

Sat Sep 18, 6:04pm

Sat Sep 18, 5:04pm

Sat Sep 18, 4:04pm

Sat Sep 18, 3:04pm

Sat Sep 18, 2:04pm

Sat Sep 18, 1:04pm

Sat Sep 18, 12:04pm

Sat Sep 18, 11:04am

Sat Sep 18, 10:04am

Sat Sep 18, 9:04am

Sat Sep 18, 8:04am

Sat Sep 18, 7:04am

Sat Sep 18, 6:04am

Sat Sep 18, 5:04am

Sat Sep 18, 4:04am

Sat Sep 18, 3:04am

Sat Sep 18, 2:04am

Sat Sep 18, 1:04am

Sat Sep 18, 12:04am

Fri Sep 17, 11:04pm

Fri Sep 17, 10:04pm

Fri Sep 17, 9:04pm

Fri Sep 17, 8:04pm

Fri Sep 17, 7:04pm

Fri Sep 17, 6:04pm

Fri Sep 17, 5:04pm

Fri Sep 17, 4:04pm

Fri Sep 17, 3:04pm

Fri Sep 17, 2:04pm

Fri Sep 17, 1:04pm

Fri Sep 17, 12:05pm

Fri Sep 17, 11:04am

Fri Sep 17, 10:04am

Fri Sep 17, 9:04am

Fri Sep 17, 8:04am

Fri Sep 17, 7:04am

Fri Sep 17, 6:04am

Fri Sep 17, 5:04am

Fri Sep 17, 4:04am

Fri Sep 17, 3:04am

Fri Sep 17, 2:04am

Fri Sep 17, 1:04am

Fri Sep 17, 12:04am

Thu Sep 16, 11:04pm

Thu Sep 16, 10:04pm

Thu Sep 16, 9:04pm

Thu Sep 16, 8:04pm

Thu Sep 16, 7:04pm

Thu Sep 16, 6:04pm

Thu Sep 16, 5:04pm

Thu Sep 16, 4:04pm

Thu Sep 16, 3:04pm

Thu Sep 16, 2:04pm

Thu Sep 16, 1:05pm

Thu Sep 16, 12:04pm

Thu Sep 16, 11:05am

Thu Sep 16, 10:05am

Thu Sep 16, 9:04am

Thu Sep 16, 8:04am

Thu Sep 16, 7:04am

Thu Sep 16, 6:04am

Meta data:

ID: 1fdd3648-a05d-4780-9962-5c3b3c62e780
Link: https://api.weather.gov/products/1fdd3648-a05d-4780-9962-5c3b3c62e780